Weather in Briakan

Russia / Khabarovsk Krai     52°18′40″N   135°49′36″E
temp.,
°C
wind,
m/s
gust,
m/s
humid.,
%
clouds,
%
prec.,
mm/h
press.,
hPa
HPBL,
m
27 february, sat
sat2701:00−18wsw119248 0.0 103120
04:00−20wsw118625 0.0 103120
07:00−22sw118513 0.0 103020
10:00−16ese118315 0.0 1029118
13:00−14ese228898 0.0 1026286
16:00−14ese239499 0.1 1022301
19:00−16ese1397100 0.4 1020226
22:00−16ese1199100 0.6 101783
28 february, sun
sun2801:00−18nnw1198100 0.1 101420
04:00−20wnw1297100 0.1 101220
07:00−21nw129764 0.0 101320
10:00−15nw119168 0.0 1013168
13:00−10e118495 0.0 1014497
16:00−10ene128797 0.1 1015483
19:00−14nw028987 0.2 101873
22:00−19w228293 0.2 102252
1 march, mon
mon101:00−23w228080 0.0 102355
04:00−26w228143 0.0 102522
07:00−27w238034 0.0 102632
10:00−21w257531 0.0 1026272
13:00−17w36643 0.0 10251037
16:00−17w46634 0.0 10251003
19:00−22w4136610 0.0 1026396
22:00−25w3117011 0.0 1029282
2 march, tue
tue201:00−29w23780 0.0 102943
04:00−32wsw22800 0.0 103022
07:00−32wsw22800 0.0 103125
10:00−25wsw25740 0.0 1029279
13:00−19w47590 0.0 10281567
16:00−18w245723 0.0 10261816
19:00−21sw4106434 0.0 1027245
22:00−26wsw237717 0.0 102925
3 march, wed
wed301:00−28wsw22800 0.0 102821
04:00−29w22810 0.0 102719
07:00−29w128210 0.0 102519
10:00−23ese11819 0.0 1022194
13:00−20ese228660 0.0 1018402
16:00−19ese228980 0.0 1014445
19:00−23n1199100 0.1 101420
22:00−25nw119897 0.1 101420